Volver al catálogo

DELTA 1 DEB

ActivoSSO
NORAD 14463·DEBRIS·🇺🇸 United States

Lanzado Mar 5, 1978 desde Vandenberg Space Force Base

Loading…

Próximos Pases (próximas 24 horas)

TLE

ActualizadoSource: Space-Track

Época: Sep 14, 2026, 10:43 UTC

1 14463U 78026GD  26257.44680527  .00000619  00000-0  29866-3 0  9999
2 14463  98.8616 152.2502 0119209 123.7084 289.7632 14.18544787310619

Sigue DELTA 1 DEB en tiempo real con AllMySat

Download on the App Store